Weather in The Golden Sands

Bulgaria     43°17′11″N   28°02′38″E
temp.,
°C
wind,
m/s
gust,
m/s
humid.,
%
clouds,
%
prec.,
mm/h
press.,
hPa
HPBL,
m
18 may, tue
tue1800:00+15wsw1176100 0.0 100612
03:00+14wnw458843 0.6 1006101
06:00+13wnw5118895 0.1 1005212
09:00+15wnw9177917 0.1 1007585
12:00+19w1217536 0.0 10071261
15:00+20w1115490 0.0 10071468
18:00+18w916550 0.0 10081289
21:00+16w1118580 0.0 10081068
19 may, wed
wed1900:00+15w916600 0.0 1010912
03:00+14w916630 0.0 1010823
06:00+12w715690 0.0 1011606
09:00+16w812624 0.0 1013610
12:00+20w68465 0.0 10131083
15:00+22wsw46475 0.0 10121487
18:00+19sse5765100 0.0 1011297
21:00+15sse2381100 0.0 101133
20 may, thu
thu2000:00+14sse33875 0.0 101054
03:00+14sse23885 0.0 100937
06:00+14sse22885 0.0 100822
09:00+18nw34715 0.0 1008438
12:00+19nw6667100 0.0 1008758
15:00+18nw91064100 0.0 1009795
18:00+16wnw71166100 0.0 1010758
21:00+14wnw81271100 0.0 1011661
21 may, fri
fri2100:00+14wnw51071100 0.0 1012592
03:00+11wnw61275100 0.0 1012489
06:00+11wnw71479100 0.0 1011522
09:00+12wnw8127999 0.4 1011626
12:00+12nnw6987100 3.4 1011602
15:00+13n3787100 10.4 1011587
18:00+13nnw61187100 6.3 1011590
21:00+13nnw51383100 6.4 1012562
22 may, sat
sat2200:00+13nnw51188100 0.2 1012562
03:00+13nnw81591100 0.8 1012579
06:00+12nnw10168927 0.0 1012560
09:00+14nnw10157848 0.0 1014744
12:00+17n71069100 0.0 10141039
15:00+19nnw6860100 0.0 10141147
18:00+19nnw256613 0.0 1014791
21:00+16nw33740 0.0 101422